�������l�o���
Date,Time,MP-1(��Sv/h),MP-2(��Sv/h),MP-3(��Sv/h),MP-4(��Sv/h),MP-5(��Sv/h),MP-6(��Sv/h),MP-7(��Sv/h),MP-8(��Sv/h),����,����(m/s),���J
2018/11/08,00:00,0.766,1.160,0.812,1.448,1.050,0.452,0.797,0.756,�k�k��,6.7,��
2018/11/08,00:10,0.770,1.160,0.814,1.452,1.050,0.451,0.795,0.755,�k��,7.5,��
2018/11/08,00:20,0.769,1.160,0.816,1.450,1.051,0.452,0.797,0.756,�k�k��,7.0,�L
2018/11/08,00:30,0.767,1.159,0.813,1.451,1.049,0.452,0.799,0.757,�k�k��,6.7,�L
2018/11/08,00:40,0.768,1.158,0.814,1.450,1.047,0.454,0.798,0.757,�k�k��,6.7,��
2018/11/08,00:50,0.769,1.161,0.814,1.449,1.049,0.454,0.796,0.756,�k�k��,6.3,�L
2018/11/08,01:00,0.770,1.162,0.816,1.452,1.050,0.452,0.799,0.757,�k�k��,5.7,�L
2018/11/08,01:10,0.768,1.160,0.815,1.451,1.048,0.451,0.799,0.757,�k�k��,6.5,�L
2018/11/08,01:20,0.769,1.159,0.814,1.452,1.049,0.451,0.796,0.755,�k�k��,7.1,��
2018/11/08,01:30,0.767,1.159,0.815,1.451,1.051,0.451,0.799,0.758,�k�k��,6.1,��
2018/11/08,01:40,0.769,1.162,0.813,1.453,1.048,0.454,0.798,0.757,�k�k��,7.2,�L
2018/11/08,01:50,0.767,1.160,0.815,1.450,1.050,0.453,0.797,0.756,�k�k��,6.8,�L
2018/11/08,02:00,0.769,1.159,0.813,1.452,1.050,0.452,0.799,0.756,�k�k��,6.8,�L
2018/11/08,02:10,0.769,1.159,0.816,1.449,1.050,0.454,0.798,0.756,�k�k��,5.8,�L
2018/11/08,02:20,0.768,1.159,0.816,1.449,1.049,0.453,0.795,0.755,�k�k��,5.1,�L
2018/11/08,02:30,0.768,1.160,0.813,1.450,1.048,0.454,0.796,0.755,�k�k��,6.4,�L
2018/11/08,02:40,0.768,1.160,0.816,1.449,1.046,0.453,0.797,0.756,�k�k��,6.8,�L
2018/11/08,02:50,0.767,1.160,0.815,1.447,1.049,0.454,0.797,0.756,�k�k��,6.7,��
2018/11/08,03:00,0.767,1.158,0.816,1.446,1.048,0.453,0.797,0.754,�k�k��,7.5,�L
2018/11/08,03:10,0.767,1.158,0.813,1.447,1.048,0.454,0.798,0.754,�k�k��,7.0,�L
2018/11/08,03:20,0.767,1.158,0.813,1.448,1.047,0.453,0.797,0.755,�k�k��,6.5,�L
2018/11/08,03:30,0.767,1.161,0.814,1.451,1.049,0.453,0.796,0.754,�k�k��,7.0,��
2018/11/08,03:40,0.767,1.159,0.814,1.447,1.048,0.452,0.798,0.756,�k�k��,7.4,��
2018/11/08,03:50,0.767,1.159,0.813,1.449,1.048,0.451,0.798,0.755,�k�k��,7.7,�L
2018/11/08,04:00,0.766,1.160,0.814,1.450,1.045,0.455,0.797,0.755,�k�k��,6.3,�L
2018/11/08,04:10,0.766,1.160,0.815,1.449,1.048,0.452,0.796,0.754,�k�k��,7.2,�L
2018/11/08,04:20,0.769,1.160,0.814,1.450,1.045,0.452,0.796,0.755,�k�k��,8.1,��
2018/11/08,04:30,0.766,1.161,0.812,1.447,1.047,0.452,0.797,0.754,�k�k��,7.6,��
2018/11/08,04:40,0.766,1.157,0.813,1.447,1.046,0.454,0.798,0.754,�k�k��,6.9,�L
2018/11/08,04:50,0.767,1.160,0.813,1.449,1.048,0.451,0.796,0.755,�k�k��,8.3,�L
2018/11/08,05:00,0.767,1.160,0.814,1.449,1.046,0.451,0.798,0.753,�k�k��,8.1,�L
2018/11/08,05:10,0.767,1.156,0.814,1.449,1.047,0.452,0.798,0.756,�k�k��,8.7,�L
2018/11/08,05:20,0.768,1.155,0.814,1.449,1.046,0.452,0.797,0.755,�k�k��,8.2,�L
2018/11/08,05:30,0.764,1.154,0.813,1.447,1.045,0.452,0.796,0.754,�k�k��,8.5,�L
2018/11/08,05:40,0.766,1.153,0.811,1.445,1.041,0.453,0.795,0.754,�k��,5.6,�L
2018/11/08,05:50,0.763,1.153,0.812,1.446,1.042,0.451,0.794,0.756,�k�k��,5.6,�L
2018/11/08,06:00,0.765,1.152,0.811,1.445,1.043,0.452,0.795,0.754,�k�k��,6.3,�L
2018/11/08,06:10,0.763,1.152,0.812,1.443,1.043,0.450,0.795,0.753,�k�k��,7.4,�L
2018/11/08,06:20,0.765,1.148,0.811,1.443,1.040,0.452,0.794,0.751,�k�k��,7.4,�L
2018/11/08,06:30,0.764,1.149,0.813,1.446,1.042,0.451,0.794,0.754,�k�k��,6.9,��
2018/11/08,06:40,0.765,1.150,0.810,1.443,1.040,0.450,0.794,0.753,�k�k��,7.3,�L
2018/11/08,06:50,0.763,1.149,0.811,1.446,1.036,0.450,0.793,0.753,�k�k��,7.4,�L
2018/11/08,07:00,0.763,1.149,0.810,1.444,1.039,0.451,0.793,0.754,�k�k��,6.4,��
2018/11/08,07:10,0.763,1.150,0.809,1.445,1.039,0.451,0.794,0.755,�k�k��,7.5,��
2018/11/08,07:20,0.764,1.149,0.810,1.446,1.040,0.450,0.795,0.754,�k�k��,7.5,��
2018/11/08,07:30,0.763,1.150,0.809,1.446,1.040,0.450,0.795,0.753,�k�k��,6.9,��
2018/11/08,07:40,0.763,1.151,0.811,1.443,1.040,0.449,0.796,0.754,�k�k��,6.8,��
2018/11/08,07:50,0.765,1.149,0.810,1.446,1.039,0.450,0.794,0.755,�k�k��,7.7,��
2018/11/08,08:00,0.764,1.151,0.811,1.444,1.038,0.451,0.795,0.754,�k�k��,7.1,�L
2018/11/08,08:10,0.766,1.152,0.809,1.445,1.041,0.450,0.796,0.754,�k�k��,6.8,�L
2018/11/08,08:20,0.763,1.151,0.807,1.442,1.042,0.450,0.795,0.754,�k�k��,6.1,�L
2018/11/08,08:30,0.765,1.151,0.810,1.444,1.041,0.451,0.794,0.753,�k�k��,5.9,�L
2018/11/08,08:40,0.763,1.149,0.811,1.446,1.039,0.450,0.795,0.752,�k�k��,7.6,�L
2018/11/08,08:50,0.765,1.149,0.809,1.447,1.038,0.451,0.794,0.752,�k�k��,6.1,�L
2018/11/08,09:00,0.764,1.150,0.809,1.445,1.038,0.449,0.795,0.756,�k�k��,6.7,�L
2018/11/08,09:10,0.763,1.149,0.810,1.444,1.040,0.451,0.797,0.754,�k�k��,6.6,�L
2018/11/08,09:20,0.766,1.150,0.810,1.445,1.040,0.450,0.795,0.754,�k�k��,6.4,�L
2018/11/08,09:30,0.764,1.151,0.809,1.445,1.038,0.450,0.797,0.753,�k�k��,7.3,�L
2018/11/08,09:40,0.765,1.152,0.808,1.445,1.038,0.450,0.794,0.753,�k��,6.5,�L
2018/11/08,09:50,0.762,1.152,0.810,1.446,1.038,0.452,0.795,0.754,�k��,6.8,�L
2018/11/08,10:00,0.764,1.149,0.812,1.442,1.039,0.450,0.796,0.753,�k��,5.8,�L
2018/11/08,10:10,0.764,1.148,0.812,1.447,1.038,0.451,0.794,0.752,�k��,6.3,�L
2018/11/08,10:20,0.766,1.151,0.811,1.447,1.038,0.451,0.795,0.754,�k�k��,5.7,�L
2018/11/08,10:30,0.764,1.152,0.810,1.445,1.038,0.452,0.796,0.755,�k�k��,6.0,��
2018/11/08,10:40,0.766,1.152,0.809,1.447,1.041,0.451,0.795,0.757,�k�k��,6.1,��
2018/11/08,10:50,0.765,1.154,0.811,1.445,1.040,0.451,0.795,0.753,�k�k��,4.9,��
2018/11/08,11:00,0.766,1.154,0.813,1.447,1.041,0.449,0.795,0.753,�k�k��,4.8,�L
2018/11/08,11:10,0.765,1.154,0.814,1.447,1.039,0.449,0.796,0.753,�k�k��,5.5,�L
2018/11/08,11:20,0.764,1.153,0.811,1.445,1.039,0.448,0.794,0.756,�k�k��,6.6,��
2018/11/08,11:30,0.763,1.149,0.813,1.452,1.039,0.449,0.796,0.752,�k�k��,5.3,�L
2018/11/08,11:40,0.762,1.151,0.815,1.449,1.036,0.450,0.796,0.753,�k,5.4,��
2018/11/08,11:50,0.762,1.151,0.812,1.448,1.039,0.449,0.796,0.752,�k�k��,5.9,�L
2018/11/08,12:00,0.763,1.152,0.810,1.449,1.038,0.448,0.797,0.754,�k�k��,5.8,�L
2018/11/08,12:10,0.766,1.151,0.813,1.449,1.039,0.450,0.797,0.755,�k�k��,7.3,��
2018/11/08,12:20,0.766,1.154,0.814,1.449,1.044,0.449,0.796,0.753,�k�k��,6.6,�L
2018/11/08,12:30,0.765,1.154,0.812,1.449,1.040,0.449,0.797,0.755,�k�k��,6.4,�L
2018/11/08,12:40,0.765,1.152,0.811,1.449,1.044,0.451,0.796,0.754,�k�k��,6.7,�L
2018/11/08,12:50,0.764,1.152,0.812,1.452,1.041,0.450,0.796,0.755,�k�k��,4.8,�L
2018/11/08,13:00,0.764,1.151,0.812,1.449,1.041,0.450,0.796,0.751,�k�k��,5.3,�L
2018/11/08,13:10,0.764,1.153,0.811,1.450,1.041,0.449,0.796,0.752,�k�k��,5.9,�L
2018/11/08,13:20,0.765,1.153,0.813,1.450,1.040,0.450,0.797,0.752,�k�k��,5.7,��
2018/11/08,13:30,0.765,1.154,0.814,1.451,1.040,0.450,0.796,0.754,�k�k��,5.8,�L
2018/11/08,13:40,0.766,1.154,0.814,1.449,1.043,0.451,0.798,0.753,�k�k��,5.3,��
2018/11/08,13:50,0.765,1.155,0.812,1.448,1.043,0.449,0.796,0.753,�k�k��,5.6,��
2018/11/08,14:00,0.766,1.156,0.812,1.451,1.044,0.452,0.798,0.754,�k�k��,5.8,��
2018/11/08,14:10,0.769,1.157,0.812,1.452,1.043,0.450,0.797,0.753,�k�k��,6.3,��
2018/11/08,14:20,0.766,1.158,0.812,1.451,1.043,0.451,0.796,0.752,�k�k��,7.0,��
2018/11/08,14:30,0.767,1.157,0.814,1.452,1.042,0.452,0.797,0.755,�k�k��,6.9,��
2018/11/08,14:40,0.766,1.158,0.812,1.452,1.044,0.452,0.797,0.754,�k�k��,6.2,��
2018/11/08,14:50,0.766,1.158,0.813,1.452,1.043,0.451,0.796,0.754,�k�k��,6.9,��
2018/11/08,15:00,0.768,1.155,0.814,1.451,1.043,0.451,0.798,0.754,�k�k��,5.5,��
2018/11/08,15:10,0.767,1.155,0.814,1.451,1.043,0.452,0.798,0.755,�k�k��,5.9,��
2018/11/08,15:20,0.768,1.156,0.813,1.451,1.042,0.450,0.797,0.755,�k�k��,5.9,��
2018/11/08,15:30,0.766,1.157,0.815,1.451,1.044,0.451,0.797,0.755,�k�k��,5.8,�L
2018/11/08,15:40,0.767,1.156,0.814,1.453,1.043,0.451,0.797,0.754,�k��,6.0,�L
2018/11/08,15:50,0.767,1.157,0.813,1.452,1.045,0.450,0.798,0.756,�k�k��,5.8,�L
2018/11/08,16:00,0.769,1.157,0.814,1.451,1.044,0.451,0.797,0.754,�k�k��,6.0,�L
2018/11/08,16:10,0.764,1.158,0.814,1.453,1.045,0.451,0.797,0.754,�k�k��,6.9,�L
2018/11/08,16:20,0.767,1.158,0.813,1.450,1.044,0.452,0.798,0.756,�k�k��,6.4,�L
2018/11/08,16:30,0.768,1.156,0.814,1.451,1.045,0.452,0.796,0.755,�k�k��,6.0,�L
2018/11/08,16:40,0.766,1.155,0.813,1.452,1.048,0.453,0.799,0.756,�k�k��,6.2,�L
2018/11/08,16:50,0.768,1.158,0.812,1.455,1.047,0.451,0.797,0.756,�k�k��,5.1,�L
2018/11/08,17:00,0.767,1.158,0.815,1.451,1.043,0.450,0.797,0.755,�k�k��,5.3,�L
2018/11/08,17:10,0.767,1.155,0.813,1.452,1.047,0.450,0.798,0.756,�k�k��,5.5,�L
2018/11/08,17:20,0.767,1.155,0.813,1.454,1.045,0.451,0.796,0.756,�k�k��,5.6,��
2018/11/08,17:30,0.766,1.157,0.813,1.454,1.045,0.453,0.797,0.755,�k�k��,6.2,��
2018/11/08,17:40,0.767,1.158,0.812,1.452,1.045,0.452,0.800,0.755,�k�k��,5.5,�L
2018/11/08,17:50,0.768,1.157,0.815,1.452,1.045,0.451,0.797,0.756,�k�k��,4.3,�L
2018/11/08,18:00,0.766,1.156,0.815,1.454,1.046,0.452,0.797,0.755,�k�k��,5.1,�L
2018/11/08,18:10,0.768,1.157,0.814,1.453,1.046,0.452,0.798,0.755,�k�k��,4.7,�L
2018/11/08,18:20,0.767,1.157,0.816,1.451,1.048,0.453,0.798,0.758,�k�k��,4.4,�L
2018/11/08,18:30,0.769,1.158,0.814,1.452,1.046,0.452,0.798,0.756,�k�k��,4.5,�L
2018/11/08,18:40,0.767,1.157,0.813,1.454,1.047,0.452,0.797,0.757,�k�k��,4.5,�L
2018/11/08,18:50,0.769,1.159,0.815,1.452,1.045,0.453,0.800,0.756,�k�k��,5.2,�L
2018/11/08,19:00,0.766,1.158,0.814,1.451,1.044,0.450,0.798,0.758,�k�k��,4.8,�L
2018/11/08,19:10,0.766,1.157,0.814,1.451,1.044,0.452,0.797,0.755,�k�k��,4.9,�L
2018/11/08,19:20,0.766,1.159,0.815,1.455,1.047,0.452,0.796,0.756,�k�k��,5.1,�L
2018/11/08,19:30,0.766,1.157,0.815,1.454,1.046,0.454,0.798,0.755,�k�k��,5.2,�L
2018/11/08,19:40,0.767,1.158,0.815,1.452,1.046,0.454,0.797,0.754,�k��,5.8,�L
2018/11/08,19:50,0.766,1.157,0.815,1.454,1.046,0.453,0.798,0.755,�k�k��,6.4,�L
2018/11/08,20:00,0.765,1.157,0.814,1.453,1.046,0.453,0.796,0.757,�k�k��,7.3,�L
2018/11/08,20:10,0.766,1.154,0.816,1.452,1.045,0.453,0.796,0.754,�k�k��,6.8,�L
2018/11/08,20:20,0.766,1.154,0.815,1.453,1.044,0.452,0.797,0.755,�k�k��,6.9,�L
2018/11/08,20:30,0.764,1.156,0.813,1.455,1.044,0.452,0.797,0.755,�k��,6.5,��
2018/11/08,20:40,0.766,1.156,0.815,1.450,1.044,0.451,0.798,0.754,�k��,6.5,��
2018/11/08,20:50,0.768,1.153,0.813,1.455,1.046,0.452,0.799,0.755,�k��,6.7,��
2018/11/08,21:00,0.767,1.155,0.813,1.450,1.043,0.452,0.799,0.756,�k��,6.7,��
2018/11/08,21:10,0.767,1.154,0.814,1.453,1.046,0.451,0.797,0.755,�k��,6.2,��
2018/11/08,21:20,0.766,1.152,0.814,1.452,1.047,0.452,0.798,0.754,�k��,5.8,��
2018/11/08,21:30,0.767,1.154,0.813,1.453,1.045,0.451,0.797,0.756,�k��,5.9,��
2018/11/08,21:40,0.766,1.152,0.812,1.452,1.047,0.452,0.797,0.756,�k��,6.2,�L
2018/11/08,21:50,0.766,1.157,0.814,1.452,1.044,0.452,0.796,0.755,�k��,5.6,��
2018/11/08,22:00,0.763,1.153,0.813,1.455,1.046,0.452,0.797,0.756,�k��,5.0,�L
2018/11/08,22:10,0.764,1.155,0.813,1.453,1.045,0.452,0.799,0.754,�k��,6.0,�L
2018/11/08,22:20,0.765,1.155,0.813,1.454,1.044,0.452,0.797,0.756,�k��,5.4,��
2018/11/08,22:30,0.765,1.155,0.814,1.453,1.046,0.452,0.797,0.754,�k��,5.1,�L
2018/11/08,22:40,0.765,1.154,0.813,1.453,1.043,0.452,0.797,0.755,�k��,5.7,�L
2018/11/08,22:50,0.765,1.153,0.813,1.454,1.043,0.453,0.799,0.757,�k��,5.7,�L
2018/11/08,23:00,0.765,1.150,0.814,1.454,1.046,0.454,0.796,0.757,�k��,5.7,��
2018/11/08,23:10,0.763,1.151,0.813,1.451,1.047,0.452,0.797,0.756,�k��,6.0,��
2018/11/08,23:20,0.765,1.153,0.813,1.454,1.043,0.454,0.799,0.755,�k��,6.4,��
2018/11/08,23:30,0.762,1.153,0.812,1.454,1.045,0.453,0.799,0.756,�k��,6.3,��
2018/11/08,23:40,0.765,1.152,0.814,1.454,1.045,0.454,0.798,0.757,�k��,6.7,��
2018/11/08,23:50,0.764,1.153,0.812,1.455,1.045,0.452,0.798,0.756,�k��,6.4,��
